カタログに戻る

COSMOS 1275 DEB

運用中PO
NORAD 12707·DEBRIS·🇷🇺 Russia

打ち上げ Jun 4, 1981 から Plesetsk Cosmodrome

Loading…

次のパス (今後24時間)

TLE

最新Source: Space-Track

元期: Sep 14, 2026, 12:22 UTC

1 12707U 81053BB  26257.51560510  .00000257  00000-0  31022-3 0  9994
2 12707  83.0140 326.4226 0128686 246.9891 176.2985 13.59852077231078

AllMySatでCOSMOS 1275 DEBをリアルタイム追跡

Download on the App Store